Santa Barbara, CA

8:11 PM PDT on April 21, 2018 (GMT -0700)
Santa Barbara Municipal

Weather History for KSBA - December, 2013

Change the Weather History Date:

Sunday, December 15, 2013

  Actual Average Record
Temperature  
Mean Temperature 55 °F 52 °F  
Max Temperature 76 °F 63 °F 82 °F (1942)
Min Temperature 34 °F 40 °F 27 °F (1967)
Degree Days  
Heating Degree Days 10 13  
Month to date heating degree days 215 189  
Since 1 July heating degree days 589 667  
Cooling Degree Days 0 0  
Month to date cooling degree days 0 0  
Year to date cooling degree days 285 188  
Growing Degree Days 5 (Base 50)    
Moisture  
Dew Point 31 °F    
Average Humidity 44    
Maximum Humidity 75    
Minimum Humidity 13    
Precipitation  
Precipitation 0.00 in 0.09 in 1.27 in (2008)
Month to date precipitation 0.16 1.13  
Year to date precipitation 4.71 15.95  
Since 1 July precipitation 1.36  
Sea Level Pressure  
Sea Level Pressure 30.17 in    
Wind  
Wind Speed 2 mph (West)    
Max Wind Speed 13 mph    
Max Gust Speed -    
Visibility 10 miles    
Events      
T = Trace of Precipitation, MM = Missing Value Source: NWS Daily Summary

Daily Weather History Graph

Daily Weather History Graph

Search for Another Location

Airport or City:

Astronomy

Dec. 15, 2013 Rise Set
Actual Time 6:58 AM PST 4:50 PM PST
Civil Twilight 6:30 AM PST 5:18 PM PST
Nautical Twilight 5:59 AM PST 5:50 PM PST
Astronomical Twilight 5:28 AM PST 6:20 PM PST
Moon 3:56 PM PST (12/15) 5:22 AM PST (12/15)
Length of Visible Light 10h 47m
Length of Day
9h 52m
Waxing Gibbous, 98% of the Moon is Illuminated
Dec 15
Waxing Gibbous
Dec 17
Full
Dec 25
Last Quarter
Jan 1
New
Jan 7
First Quarter

Hourly Weather History & Observations

Time (PST) Temp. Dew Point Humidity Pressure Visibility Wind Dir Wind Speed Gust Speed Precip Events Conditions
12:53 AM 39.9 °F 28.9 °F 65% 30.25 in 10.0 mi Calm Calm - N/A   Clear
1:53 AM 41.0 °F 28.9 °F 62% 30.25 in 10.0 mi Calm Calm - N/A   Clear
2:53 AM 37.9 °F 28.0 °F 68% 30.23 in 10.0 mi Calm Calm - N/A   Clear
3:53 AM 35.1 °F 28.0 °F 76% 30.22 in 10.0 mi Calm Calm - N/A   Clear
4:53 AM 39.0 °F 28.9 °F 67% 30.21 in 10.0 mi Calm Calm - N/A   Clear
5:53 AM 37.0 °F 28.0 °F 70% 30.22 in 10.0 mi Calm Calm - N/A   Clear
6:53 AM 35.1 °F 27.0 °F 72% 30.21 in 10.0 mi Calm Calm - N/A   Clear
7:53 AM 42.1 °F 30.9 °F 65% 30.23 in 10.0 mi Calm Calm - N/A   Clear
8:53 AM 55.9 °F 30.9 °F 39% 30.24 in 10.0 mi Calm Calm - N/A   Clear
9:53 AM 66.9 °F 24.1 °F 20% 30.24 in 10.0 mi Calm Calm - N/A   Clear
10:53 AM 72.0 °F 23.0 °F 16% 30.22 in 10.0 mi Calm Calm - N/A   Clear
11:53 AM 73.9 °F 21.9 °F 14% 30.18 in 10.0 mi Calm Calm - N/A   Clear
12:53 PM 75.0 °F 21.9 °F 14% 30.14 in 10.0 mi West 4.6 mph - N/A   Clear
1:53 PM 69.1 °F 37.0 °F 31% 30.12 in 10.0 mi WSW 9.2 mph - N/A   Clear
2:53 PM 66.9 °F 37.9 °F 34% 30.12 in 10.0 mi West 9.2 mph - N/A   Mostly Cloudy
3:53 PM 66.0 °F 37.0 °F 34% 30.11 in 10.0 mi West 8.1 mph - N/A   Mostly Cloudy
4:53 PM 61.0 °F 35.1 °F 38% 30.11 in 10.0 mi West 5.8 mph - N/A   Mostly Cloudy
5:53 PM 55.9 °F 33.1 °F 42% 30.12 in 10.0 mi Calm Calm - N/A   Clear
6:53 PM 55.9 °F 34.0 °F 44% 30.12 in 10.0 mi Calm Calm - N/A   Clear
7:53 PM 50.0 °F 36.0 °F 59% 30.12 in 10.0 mi North 3.5 mph - N/A   Clear
8:53 PM 50.0 °F 37.0 °F 61% 30.12 in 10.0 mi Calm Calm - N/A   Clear
9:53 PM 48.9 °F 36.0 °F 61% 30.12 in 10.0 mi Calm Calm - N/A   Clear
10:53 PM 46.9 °F 35.1 °F 63% 30.12 in 10.0 mi Calm Calm - N/A   Clear
11:53 PM 46.9 °F 35.1 °F 63% 30.11 in 10.0 mi Calm Calm - N/A   Clear